sat.trackr.live / text

‹ back to catalog

STARLINK-32079

NORAD 60336 · 2024-136H

PAYLOAD ACTIVE UNKNOWN

§ Identity

Operator
Country
US
Launch date
2024-08-02
Launch site
AFETR
Launch vehicle
Mass (kg)
RCS (m²)

Purposes: comms

External: N2YO · Heavens-Above · Gunter

§ Orbital elements

Epoch: 2026-09-21T16:26:38.800320Z

Period
93.85 min
Inclination
53.1592°
Eccentricity
0.0001010
Mean motion
15.34403532 rev/d
Perigee alt
462.0 km
Apogee alt
463.4 km
Semi-major
6,840.8 km
B*
8.0035e-5
RAAN
244.4869°
Arg perigee
77.4340°
Mean anomaly
282.6775°
Rev number
11,968

§ Raw data

STARLINK-320791 60336U 24136H   26264.68517130  .00002329  00000+0  80035-4 0  99902 60336  53.1592 244.4869 0001010  77.4340 282.6775 15.34403532119681

JSON: /api/v1/satellites/60336 · /tle

For live sub-satellite position, see the globe view (requires WebGL).

§ Visibility from observer

Set your observer location to see the next 7 days of passes ≥ 10°. The values pass through the URL so the page stays shareable.

No JS? Fill the form by hand. The geolocation button needs JavaScript.